Time,TemperatureF,DewpointF,PressureIn,WindDirection,WindDirectionDegrees,WindSpeedMPH,WindSpeedGustMPH,Humidity,HourlyPrecipIn,Conditions,Clouds,dailyrainin,SoftwareType,DateUTC
2013-03-13 00:02:00,44.0,27.0,-100.00,SSE,150,12.0,14.0,52,-99.99,,,0.00,,2013-03-13 06:02:00,
2013-03-13 00:12:00,44.0,27.0,-100.00,SSE,150,12.0,14.0,52,-99.99,,,0.00,,2013-03-13 06:12:00,
2013-03-13 00:22:00,44.0,27.0,-100.00,SSE,150,12.0,14.0,52,-99.99,,,0.00,,2013-03-13 06:22:00,
2013-03-13 00:52:00,42.0,28.0,-100.00,WSW,240,9.0,11.0,57,-99.99,,,0.00,,2013-03-13 06:52:00,
2013-03-13 01:02:00,42.0,28.0,-100.00,WSW,240,9.0,11.0,57,-99.99,,,0.00,,2013-03-13 07:02:00,
2013-03-13 01:12:00,42.0,28.0,-100.00,WSW,240,9.0,11.0,57,-99.99,,,0.00,,2013-03-13 07:12:00,
2013-03-13 01:22:00,42.0,28.0,-100.00,WSW,240,9.0,11.0,57,-99.99,,,0.00,,2013-03-13 07:22:00,
2013-03-13 01:52:00,41.0,29.0,-100.00,SSE,160,12.0,12.0,61,-99.99,,,0.00,,2013-03-13 07:52:00,
2013-03-13 02:03:00,41.0,29.0,-100.00,SSE,160,12.0,12.0,61,-99.99,,,0.00,,2013-03-13 08:03:00,
2013-03-13 02:12:00,41.0,29.0,-100.00,SSE,160,12.0,12.0,61,-99.99,,,0.00,,2013-03-13 08:12:00,
2013-03-13 02:22:00,41.0,29.0,-100.00,SSE,160,12.0,12.0,61,-99.99,,,0.00,,2013-03-13 08:22:00,
2013-03-13 02:53:00,43.0,30.0,-100.00,SW,215,14.0,16.0,60,-99.99,,,0.00,,2013-03-13 08:53:00,
2013-03-13 03:02:00,43.0,30.0,-100.00,SW,215,14.0,16.0,60,-99.99,,,0.00,,2013-03-13 09:02:00,
2013-03-13 03:12:00,43.0,30.0,-100.00,SW,215,14.0,16.0,60,-99.99,,,0.00,,2013-03-13 09:12:00,
2013-03-13 03:22:00,43.0,30.0,-100.00,SW,215,14.0,16.0,60,-99.99,,,0.00,,2013-03-13 09:22:00,
2013-03-13 03:52:00,43.0,30.0,-100.00,SSW,195,19.0,23.0,60,-99.99,,,0.00,,2013-03-13 09:52:00,
2013-03-13 04:02:00,43.0,30.0,-100.00,SSW,195,19.0,23.0,60,-99.99,,,0.00,,2013-03-13 10:02:00,
2013-03-13 04:11:00,43.0,30.0,-100.00,SSW,195,19.0,23.0,60,-99.99,,,0.00,,2013-03-13 10:11:00,
2013-03-13 04:22:00,43.0,30.0,-100.00,SSW,195,19.0,23.0,60,-99.99,,,0.00,,2013-03-13 10:22:00,
2013-03-13 04:52:00,43.0,30.0,-100.00,SSW,205,19.0,20.0,61,-99.99,,,-99.99,,2013-03-13 10:52:00,
2013-03-13 05:02:00,43.0,30.0,-100.00,SSW,205,19.0,20.0,61,-99.99,,,-99.99,,2013-03-13 11:02:00,
2013-03-13 05:12:00,43.0,30.0,-100.00,SSW,205,19.0,20.0,61,-99.99,,,-99.99,,2013-03-13 11:12:00,
2013-03-13 05:22:00,43.0,30.0,-100.00,SSW,205,19.0,20.0,61,-99.99,,,-99.99,,2013-03-13 11:22:00,
2013-03-13 05:52:00,44.0,30.0,-100.00,SW,215,22.0,26.0,57,-99.99,,,0.00,,2013-03-13 11:52:00,
2013-03-13 06:02:00,44.0,30.0,-100.00,SW,215,22.0,26.0,57,-99.99,,,0.00,,2013-03-13 12:02:00,
2013-03-13 06:12:00,44.0,30.0,-100.00,SW,215,22.0,26.0,57,-99.99,,,0.00,,2013-03-13 12:12:00,
2013-03-13 06:22:00,44.0,30.0,-100.00,SW,215,22.0,26.0,57,-99.99,,,0.00,,2013-03-13 12:22:00,
2013-03-13 06:53:00,44.0,29.0,-100.00,SW,230,18.0,21.0,55,-99.99,,,0.00,,2013-03-13 12:53:00,
2013-03-13 07:02:00,44.0,29.0,-100.00,SW,230,18.0,21.0,55,-99.99,,,0.00,,2013-03-13 13:02:00,
2013-03-13 07:11:00,44.0,29.0,-100.00,SW,230,18.0,21.0,55,-99.99,,,0.00,,2013-03-13 13:11:00,
2013-03-13 07:22:00,44.0,29.0,-100.00,SW,230,18.0,21.0,55,-99.99,,,0.00,,2013-03-13 13:22:00,
2013-03-13 07:52:00,44.0,28.0,-100.00,WSW,245,27.0,30.0,54,-99.99,,,0.00,,2013-03-13 13:52:00,
2013-03-13 08:02:00,44.0,28.0,-100.00,WSW,245,27.0,30.0,54,-99.99,,,0.00,,2013-03-13 14:02:00,
2013-03-13 08:12:00,44.0,28.0,-100.00,WSW,245,27.0,30.0,54,-99.99,,,0.00,,2013-03-13 14:12:00,
2013-03-13 08:21:00,44.0,28.0,-100.00,WSW,245,27.0,30.0,54,-99.99,,,0.00,,2013-03-13 14:21:00,
2013-03-13 08:52:00,45.0,30.0,-100.00,SW,225,26.0,29.0,54,-99.99,,,-99.99,,2013-03-13 14:52:00,
2013-03-13 09:02:00,45.0,30.0,-100.00,SW,225,26.0,29.0,54,-99.99,,,-99.99,,2013-03-13 15:02:00,
2013-03-13 09:12:00,45.0,30.0,-100.00,SW,225,26.0,29.0,54,-99.99,,,-99.99,,2013-03-13 15:12:00,
2013-03-13 09:22:00,45.0,30.0,-100.00,SW,225,26.0,29.0,54,-99.99,,,-99.99,,2013-03-13 15:22:00,
2013-03-13 09:52:00,47.0,30.0,-100.00,South,180,23.0,26.0,52,-99.99,,,-99.99,,2013-03-13 15:52:00,
2013-03-13 10:02:00,47.0,30.0,-100.00,South,180,23.0,26.0,52,-99.99,,,-99.99,,2013-03-13 16:02:00,
2013-03-13 10:12:00,47.0,30.0,-100.00,South,180,23.0,26.0,52,-99.99,,,-99.99,,2013-03-13 16:12:00,
2013-03-13 10:22:00,47.0,30.0,-100.00,South,180,23.0,26.0,52,-99.99,,,-99.99,,2013-03-13 16:22:00,
2013-03-13 10:52:00,48.0,30.0,-100.00,SSE,165,16.0,17.0,49,-99.99,,,-99.99,,2013-03-13 16:52:00,
2013-03-13 11:02:00,48.0,30.0,-100.00,SSE,165,16.0,17.0,49,-99.99,,,-99.99,,2013-03-13 17:02:00,
2013-03-13 11:11:00,48.0,30.0,-100.00,SSE,165,16.0,17.0,49,-99.99,,,-99.99,,2013-03-13 17:11:00,
2013-03-13 11:22:00,48.0,30.0,-100.00,SSE,165,16.0,17.0,49,-99.99,,,-99.99,,2013-03-13 17:22:00,
2013-03-13 11:53:00,51.0,29.0,-100.00,SW,220,21.0,25.0,42,-99.99,,,0.00,,2013-03-13 17:53:00,
2013-03-13 12:02:00,51.0,29.0,-100.00,SW,220,21.0,25.0,42,-99.99,,,0.00,,2013-03-13 18:02:00,
2013-03-13 12:12:00,51.0,29.0,-100.00,SW,220,21.0,25.0,42,-99.99,,,0.00,,2013-03-13 18:12:00,
2013-03-13 12:22:00,51.0,29.0,-100.00,SW,220,21.0,25.0,42,-99.99,,,0.00,,2013-03-13 18:22:00,
2013-03-13 12:52:00,56.0,26.0,-100.00,WSW,245,12.0,16.0,32,-99.99,,,0.00,,2013-03-13 18:52:00,
2013-03-13 13:02:00,56.0,26.0,-100.00,WSW,245,12.0,16.0,32,-99.99,,,0.00,,2013-03-13 19:02:00,
2013-03-13 13:12:00,56.0,26.0,-100.00,WSW,245,12.0,16.0,32,-99.99,,,0.00,,2013-03-13 19:12:00,
2013-03-13 13:22:00,56.0,26.0,-100.00,WSW,245,12.0,16.0,32,-99.99,,,0.00,,2013-03-13 19:22:00,
2013-03-13 13:53:00,55.0,25.0,-100.00,West,265,19.0,21.0,31,-99.99,,,-99.99,,2013-03-13 19:53:00,
2013-03-13 14:02:00,55.0,25.0,-100.00,West,265,19.0,21.0,31,-99.99,,,-99.99,,2013-03-13 20:02:00,
2013-03-13 14:12:00,55.0,25.0,-100.00,West,265,19.0,21.0,31,-99.99,,,-99.99,,2013-03-13 20:12:00,
2013-03-13 14:22:00,55.0,25.0,-100.00,West,265,19.0,21.0,31,-99.99,,,-99.99,,2013-03-13 20:22:00,
2013-03-13 14:52:00,58.0,26.0,-100.00,WSW,240,14.0,18.0,29,-99.99,,,0.00,,2013-03-13 20:52:00,
2013-03-13 15:02:00,58.0,26.0,-100.00,WSW,240,14.0,18.0,29,-99.99,,,0.00,,2013-03-13 21:02:00,
2013-03-13 15:11:00,58.0,26.0,-100.00,WSW,240,14.0,18.0,29,-99.99,,,0.00,,2013-03-13 21:11:00,
2013-03-13 15:21:00,58.0,26.0,-100.00,WSW,240,14.0,18.0,29,-99.99,,,0.00,,2013-03-13 21:21:00,
2013-03-13 15:52:00,58.0,25.0,-100.00,SW,220,20.0,24.0,28,-99.99,,,0.00,,2013-03-13 21:52:00,
2013-03-13 16:02:00,58.0,25.0,-100.00,SW,220,20.0,24.0,28,-99.99,,,0.00,,2013-03-13 22:02:00,
2013-03-13 16:12:00,58.0,25.0,-100.00,SW,220,20.0,24.0,28,-99.99,,,0.00,,2013-03-13 22:12:00,
2013-03-13 16:22:00,58.0,25.0,-100.00,SW,220,20.0,24.0,28,-99.99,,,0.00,,2013-03-13 22:22:00,
2013-03-13 16:52:00,56.0,24.0,-100.00,SW,225,19.0,24.0,29,-99.99,,,0.00,,2013-03-13 22:52:00,
2013-03-13 17:02:00,56.0,24.0,-100.00,SW,225,19.0,24.0,29,-99.99,,,0.00,,2013-03-13 23:02:00,
2013-03-13 17:12:00,56.0,24.0,-100.00,SW,225,19.0,24.0,29,-99.99,,,0.00,,2013-03-13 23:12:00,
2013-03-13 17:22:00,56.0,24.0,-100.00,SW,225,19.0,24.0,29,-99.99,,,0.00,,2013-03-13 23:22:00,
2013-03-13 17:52:00,56.0,25.0,-100.00,SW,220,21.0,24.0,30,-99.99,,,0.00,,2013-03-13 23:52:00,
2013-03-13 18:02:00,56.0,25.0,-100.00,SW,220,21.0,24.0,30,-99.99,,,0.00,,2013-03-14 00:02:00,
2013-03-13 18:12:00,56.0,25.0,-100.00,SW,220,21.0,24.0,30,-99.99,,,0.00,,2013-03-14 00:12:00,
2013-03-13 18:22:00,56.0,25.0,-100.00,SW,220,21.0,24.0,30,-99.99,,,0.00,,2013-03-14 00:22:00,
2013-03-13 18:52:00,56.0,25.0,-100.00,WSW,240,12.0,16.0,31,-99.99,,,0.00,,2013-03-14 00:52:00,
2013-03-13 19:02:00,56.0,25.0,-100.00,WSW,240,12.0,16.0,31,-99.99,,,0.00,,2013-03-14 01:02:00,
2013-03-13 19:12:00,56.0,25.0,-100.00,WSW,240,12.0,16.0,31,-99.99,,,0.00,,2013-03-14 01:12:00,
2013-03-13 19:22:00,56.0,25.0,-100.00,WSW,240,12.0,16.0,31,-99.99,,,0.00,,2013-03-14 01:22:00,
2013-03-13 19:53:00,50.0,24.0,-100.00,SW,220,12.0,13.0,36,-99.99,,,0.00,,2013-03-14 01:53:00,
2013-03-13 20:02:00,50.0,24.0,-100.00,SW,220,12.0,13.0,36,-99.99,,,0.00,,2013-03-14 02:02:00,
2013-03-13 20:12:00,50.0,24.0,-100.00,SW,220,12.0,13.0,36,-99.99,,,0.00,,2013-03-14 02:12:00,
2013-03-13 20:22:00,50.0,24.0,-100.00,SW,220,12.0,13.0,36,-99.99,,,0.00,,2013-03-14 02:22:00,
2013-03-13 21:01:00,47.0,25.0,-100.00,SSW,200,15.0,16.0,41,-99.99,,,0.00,,2013-03-14 03:01:00,
2013-03-13 21:12:00,47.0,25.0,-100.00,SSW,200,15.0,16.0,41,-99.99,,,0.00,,2013-03-14 03:12:00,
2013-03-13 21:22:00,47.0,25.0,-100.00,SSW,200,15.0,16.0,41,-99.99,,,0.00,,2013-03-14 03:22:00,
2013-03-13 23:53:00,43.0,24.0,-100.00,SSW,195,11.0,11.0,46,-99.99,,,0.00,,2013-03-14 05:53:00,